G4KVI Weather Reports


time (UTC)temp
C
wind
direction
speed
KPH
gust
KPH
rain 1hr
cm
rain 24hr
cm
rain mn
cm
humidity
%
barometer
mb
20260505215003 11 335 3.2 6.4 0.00 0.00 0.00 68 1015.7
20260505214503 11 327 3.2 9.7 0.00 0.00 0.00 68 1015.7
20260505214003 11 318 3.2 9.7 0.00 0.00 0.00 68 1015.4
20260505213503 11 323 1.6 3.2 0.00 0.00 0.00 68 1015.8
20260505211003 11 316 1.6 6.4 0.00 0.00 0.00 67 1015.7
20260505210606 11 315 1.6 6.4 0.00 0.00 0.00 67 1015.8
20260505210003 11 327 3.2 6.4 0.00 0.00 0.00 67 1015.5
20260505205503 11 344 3.2 9.7 0.00 0.00 0.00 67 1015.7
20260505205003 11 6 3.2 9.7 0.00 0.00 0.00 67 1015.7
20260505204503 11 347 3.2 11.3 0.00 0.00 0.00 66 1015.5
20260505204106 11 2 3.2 11.3 0.00 0.00 0.00 66 1015.6
20260505203606 11 352 3.2 11.3 0.00 0.00 0.00 65 1015.5
20260505203106 11 346 1.6 6.4 0.00 0.00 0.00 65 1015.5
20260505202606 11 345 1.6 6.4 0.00 0.00 0.00 64 1015.8
20260505202106 11 345 1.6 11.3 0.00 0.00 0.00 64 1015.5
20260505201606 11 352 3.2 11.3 0.00 0.00 0.00 63 1015.4
20260505201106 11 12 3.2 9.7 0.00 0.00 0.00 63 1015.5
20260505200606 11 11 3.2 9.7 0.00 0.00 0.00 63 1015.4
20260505200106 11 343 3.2 12.9 0.00 0.00 0.00 63 1015.4
20260505195606 11 340 3.2 12.9 0.00 0.00 0.00 63 1015.5
20260505195106 11 358 3.2 6.4 0.00 0.00 0.00 63 1015.2
20260505194606 11 5 3.2 9.7 0.00 0.00 0.00 63 1015.2
20260505194106 11 5 3.2 9.7 0.00 0.00 0.00 63 1014.9
20260505193606 11 2 3.2 11.3 0.00 0.00 0.00 63 1015.2
20260505193106 11 356 3.2 11.3 0.00 0.00 0.00 62 1015.2
20260505192606 11 5 1.6 6.4 0.00 0.00 0.00 62 1015.0
20260505192106 12 19 1.6 4.8 0.00 0.00 0.00 62 1015.1
20260505191606 12 40 1.6 4.8 0.00 0.00 0.00 62 1014.9
20260505191108 12 53 1.6 6.4 0.00 0.00 0.00 61 1015.1
20260505190609 12 48 3.2 9.7 0.00 0.00 0.00 61 1015.0
20260505190108 12 40 3.2 9.7 0.00 0.00 0.00 60 1014.9
20260505185608 12 30 4.8 11.3 0.00 0.00 0.00 59 1014.7
20260505185108 12 15 3.2 11.3 0.00 0.00 0.00 59 1014.9
20260505184608 12 13 3.2 11.3 0.00 0.00 0.00 59 1014.8
20260505184108 12 11 3.2 11.3 0.00 0.00 0.00 59 1014.7
20260505183608 13 356 3.2 9.7 0.00 0.00 0.00 58 1015.1
20260505183108 13 18 3.2 11.3 0.00 0.00 0.00 58 1014.6
20260505182608 13 16 4.8 16.1 0.00 0.00 0.00 57 1014.8
20260505182108 13 355 4.8 16.1 0.00 0.00 0.00 56 1014.8
20260505181608 13 349 4.8 12.9 0.00 0.00 0.00 56 1014.7
20260505181108 13 31 4.8 12.9 0.00 0.00 0.00 55 1014.8
20260505180608 13 62 4.8 14.5 0.00 0.00 0.00 56 1014.8
20260505180108 13 57 4.8 17.7 0.00 0.00 0.00 56 1014.6
20260505175608 13 60 6.4 17.7 0.00 0.00 0.00 56 1015.0
20260505175108 13 29 6.4 16.1 0.00 0.00 0.00 56 1014.8
20260505174608 13 339 6.4 16.1 0.00 0.00 0.00 57 1014.8
20260505174108 13 348 4.8 16.1 0.00 0.00 0.00 56 1014.8
20260505173608 14 13 4.8 12.9 0.00 0.00 0.00 56 1014.8
20260505173108 14 6 4.8 12.9 0.00 0.00 0.00 55 1014.8
20260505172608 14 346 4.8 12.9 0.00 0.00 0.00 54 1015.0
20260505172108 14 339 4.8 14.5 0.00 0.00 0.00 54 1014.8
20260505171608 14 351 6.4 16.1 0.00 0.00 0.00 53 1014.9
20260505171108 14 360 4.8 16.1 0.00 0.00 0.00 54 1015.0
20260505170608 14 355 6.4 20.9 0.00 0.00 0.00 54 1014.7
20260505170108 14 351 6.4 20.9 0.00 0.00 0.00 54 1014.9
20260505165608 15 25 6.4 17.7 0.00 0.00 0.00 52 1014.7
20260505165108 15 24 6.4 14.5 0.00 0.00 0.00 49 1014.7
20260505164608 16 337 6.4 14.5 0.00 0.00 0.00 48 1014.8
20260505164108 16 320 4.8 14.5 0.00 0.00 0.00 46 1014.8
20260505163608 16 315 4.8 14.5 0.00 0.00 0.00 46 1014.8
20260505163108 16 331 6.4 14.5 0.00 0.00 0.00 46 1014.6
20260505162608 15 346 6.4 14.5 0.00 0.00 0.00 47 1014.8
20260505162108 16 340 4.8 14.5 0.00 0.00 0.00 46 1014.8
20260505161608 16 331 4.8 12.9 0.00 0.00 0.00 47 1014.9
20260505161108 16 330 4.8 12.9 0.00 0.00 0.00 47 1014.8
20260505160608 15 341 4.8 11.3 0.00 0.00 0.00 47 1014.7
20260505160108 15 337 4.8 17.7 0.00 0.00 0.00 48 1014.9
20260505153108 16 355 6.4 16.1 0.00 0.00 0.00 47 1015.0
20260505152608 16 24 4.8 16.1 0.00 0.00 0.00 46 1015.0
20260505152108 15 22 4.8 16.1 0.00 0.00 0.00 46 1015.0
20260505151608 16 9 6.4 16.1 0.00 0.00 0.00 46 1015.0
20260505151108 16 29 4.8 12.9 0.00 0.00 0.00 46 1015.1
20260505150608 15 14 4.8 11.3 0.00 0.00 0.00 46 1015.1
20260505150108 15 346 4.8 14.5 0.00 0.00 0.00 45 1014.9
20260505140608 15 28 3.2 12.9 0.00 0.00 0.00 47 1015.4
20260505140108 15 18 4.8 12.9 0.00 0.00 0.00 50 1015.2
20260505130108 15 22 4.8 14.5 0.00 0.00 0.00 52 1015.7
20260505124608 15 334 6.4 16.1 0.00 0.00 0.00 53 1015.3
20260505124108 14 356 6.4 16.1 0.00 0.00 0.00 54 1015.5
20260505123608 14 42 4.8 14.5 0.00 0.00 0.00 55 1015.4
20260505123108 15 34 4.8 12.9 0.00 0.00 0.00 54 1015.5
20260505122608 15 18 4.8 12.9 0.00 0.00 0.00 54 1015.5
20260505122108 14 46 4.8 16.1 0.00 0.00 0.00 55 1015.6
20260505121608 14 62 6.4 16.1 0.00 0.00 0.00 58 1015.5
20260505121108 14 62 6.4 16.1 0.00 0.00 0.00 56 1015.6
20260505120608 14 33 4.8 14.5 0.00 0.00 0.00 56 1015.6
20260505120108 14 31 4.8 14.5 0.00 0.00 0.00 57 1015.7
20260505115608 13 63 6.4 14.5 0.00 0.00 0.00 58 1015.7
20260505115108 13 68 6.4 14.5 0.00 0.00 0.00 58 1015.7
20260505114608 14 56 4.8 12.9 0.00 0.00 0.00 57 1015.5
20260505114108 15 41 4.8 11.3 0.00 0.00 0.00 56 1015.6
20260505113608 14 3 4.8 14.5 0.00 0.00 0.00 58 1015.8
20260505113108 14 344 4.8 14.5 0.00 0.00 0.00 58 1016.0
20260505112608 13 342 4.8 14.5 0.00 0.00 0.00 59 1016.2
20260505112108 13 348 4.8 14.5 0.00 0.00 0.00 60 1015.8
20260505111608 13 33 4.8 14.5 0.00 0.00 0.00 58 1015.9
20260505111108 13 36 4.8 11.3 0.00 0.00 0.00 60 1016.1
20260505110608 13 346 4.8 12.9 0.00 0.00 0.00 59 1016.1
20260505110108 13 17 4.8 12.9 0.00 0.00 0.00 58 1015.9
20260505102108 13 1 6.4 14.5 0.00 0.00 0.00 57 1016.4
20260505101608 13 360 4.8 14.5 0.00 0.00 0.00 57 1016.1
20260505101108 13 11 4.8 12.9 0.00 0.00 0.00 55 1016.2
20260505100608 13 360 6.4 14.5 0.00 0.00 0.00 55 1016.3
20260505100108 13 327 6.4 16.1 0.00 0.00 0.00 55 1016.2
20260505095608 13 334 8.0 16.1 0.00 0.00 0.00 57 1016.2
20260505095108 13 345 6.4 16.1 0.00 0.00 0.00 56 1016.2
20260505094608 13 342 4.8 16.1 0.00 0.00 0.00 58 1016.1
20260505094108 13 6 4.8 11.3 0.00 0.00 0.00 59 1016.2
20260505093608 13 19 4.8 14.5 0.00 0.00 0.00 59 1016.0
20260505093108 12 21 6.4 16.1 0.00 0.00 0.00 61 1016.2
20260505092608 12 51 6.4 17.7 0.00 0.00 0.00 60 1016.0
20260505092108 12 56 6.4 17.7 0.00 0.00 0.00 62 1016.2
20260505091608 12 60 8.0 16.1 0.00 0.00 0.00 63 1016.1
20260505091108 12 63 6.4 14.5 0.00 0.00 0.00 62 1016.2
20260505090608 12 47 6.4 16.1 0.00 0.00 0.00 63 1016.2
20260505090108 12 39 6.4 20.9 0.00 0.00 0.00 65 1016.2
20260505085608 12 58 6.4 20.9 0.00 0.00 0.00 66 1016.2
20260505085108 12 70 6.4 16.1 0.00 0.00 0.00 66 1016.4
20260505084608 11 70 6.4 16.1 0.00 0.00 0.00 68 1016.3
20260505084108 11 18 6.4 14.5 0.00 0.00 0.00 69 1016.5
20260505083608 11 350 6.4 14.5 0.00 0.00 0.00 72 1016.4
20260505083108 11 14 4.8 12.9 0.00 0.00 0.00 72 1016.2
20260505082608 11 43 4.8 14.5 0.00 0.00 0.00 73 1016.4
20260505082108 11 14 6.4 14.5 0.00 0.00 0.00 73 1016.3
20260505081608 11 356 6.4 14.5 0.00 0.00 0.00 73 1016.6
20260505081108 11 27 6.4 14.5 0.00 0.00 0.00 72 1016.4
20260505080608 11 36 4.8 14.5 0.00 0.00 0.00 72 1016.4
20260505080108 11 5 4.8 12.9 0.00 0.00 0.00 72 1016.8
20260505075608 11 13 4.8 17.7 0.00 0.00 0.00 73 1016.5
20260505075108 11 16 6.4 17.7 0.00 0.00 0.00 73 1016.5
20260505074608 11 1 6.4 16.1 0.00 0.00 0.00 73 1016.6
20260505074108 11 2 4.8 14.5 0.00 0.00 0.00 73 1016.7
20260505073608 11 38 6.4 14.5 0.00 0.00 0.00 74 1016.5
20260505073108 11 67 3.2 14.5 0.00 0.00 0.00 76 1016.6
20260505072608 11 29 3.2 14.5 0.00 0.00 0.00 75 1016.6
20260505072108 11 20 4.8 12.9 0.00 0.00 0.00 77 1016.5
20260505071608 10 38 4.8 12.9 0.00 0.00 0.00 78 1016.5
20260505071108 10 44 4.8 12.9 0.00 0.00 0.00 80 1016.7
20260505070608 10 38 3.2 12.9 0.00 0.00 0.00 80 1016.5
20260505070108 10 38 3.2 11.3 0.00 0.00 0.00 81 1016.5
20260505065608 9 44 4.8 11.3 0.00 0.00 0.00 81 1016.3
20260505065108 9 56 4.8 11.3 0.00 0.00 0.00 82 1016.5
20260505064608 9 63 4.8 11.3 0.00 0.00 0.00 82 1016.5
20260505064108 9 50 3.2 11.3 0.00 0.00 0.00 82 1016.6
20260505063608 9 24 1.6 6.4 0.00 0.00 0.00 82 1016.5
20260505063108 9 30 1.6 6.4 0.00 0.00 0.00 84 1016.5
20260505062608 9 10 3.2 11.3 0.00 0.00 0.00 84 1016.4
20260505062108 9 346 3.2 11.3 0.00 0.00 0.00 85 1016.6
20260505061608 9 351 1.6 4.8 0.00 0.00 0.00 86 1016.3
20260505061108 8 18 1.6 4.8 0.00 0.00 0.00 87 1016.4
20260505060608 8 22 1.6 6.4 0.00 0.00 0.00 88 1016.5
20260505060108 8 14 1.6 6.4 0.00 0.00 0.00 89 1016.3
20260505055608 8 339 3.2 6.4 0.00 0.00 0.00 89 1016.4
20260505055108 8 344 3.2 6.4 0.00 0.00 0.00 90 1016.4
20260505054608 8 357 1.6 4.8 0.00 0.00 0.00 90 1016.4
20260505054108 8 328 1.6 3.2 0.00 0.00 0.00 91 1016.4
20260505053608 8 313 0.0 3.2 0.00 0.00 0.00 91 1016.5
20260505053108 8 311 1.6 1.6 0.00 0.00 0.00 91 1016.4
20260505052608 8 309 1.6 1.6 0.00 0.00 0.00 91 1016.4
20260505052108 8 307 1.6 3.2 0.00 0.00 0.00 91 1016.5
20260505051608 8 305 1.6 3.2 0.00 0.00 0.00 91 1016.3
20260505051108 8 308 1.6 3.2 0.00 0.00 0.00 91 1016.5
20260505050608 8 314 1.6 3.2 0.00 0.00 0.00 91 1016.5
20260505050108 8 326 1.6 3.2 0.00 0.00 0.00 92 1016.4
20260505041608 8 0 0.0 0.0 0.00 0.00 0.00 92 1016.3
20260505041108 8 0 0.0 0.0 0.00 0.00 0.00 91 1016.4
20260505040608 8 0 0.0 0.0 0.00 0.00 0.00 91 1016.2
20260505040108 8 20 0.0 1.6 0.00 0.00 0.00 91 1016.3
20260505035608 8 20 0.0 1.6 0.00 0.00 0.00 91 1016.1
20260505035108 8 4 0.0 1.6 0.00 0.00 0.00 91 1016.2
20260505034608 8 13 1.6 1.6 0.00 0.00 0.00 91 1016.1
20260505034108 8 34 0.0 1.6 0.00 0.00 0.00 91 1016.2
20260505033608 8 39 0.0 1.6 0.00 0.00 0.00 91 1016.2
20260505033108 8 39 0.0 1.6 0.00 0.00 0.00 91 1016.3
20260505032608 8 39 0.0 1.6 0.00 0.00 0.00 91 1016.2
20260505032108 8 42 0.0 1.6 0.00 0.00 0.00 90 1016.2
20260505031608 8 42 0.0 1.6 0.00 0.00 0.00 90 1016.2
20260505031108 9 42 0.0 1.6 0.00 0.00 0.00 90 1016.2
20260505030608 9 42 0.0 1.6 0.00 0.00 0.00 90 1016.3
20260505030108 9 42 0.0 1.6 0.00 0.00 0.00 90 1016.0
20260505025608 9 42 0.0 1.6 0.00 0.00 0.00 90 1016.2
20260505025108 9 41 0.0 3.2 0.00 0.00 0.00 90 1016.1
20260505024608 9 44 0.0 3.2 0.00 0.00 0.00 89 1016.3
20260505024108 10 50 1.6 3.2 0.00 0.00 0.00 90 1016.2
20260505023608 10 51 1.6 3.2 0.00 0.00 0.00 89 1016.3
20260505023108 10 49 1.6 3.2 0.00 0.00 0.00 89 1016.4
20260505022608 10 42 1.6 1.6 0.00 0.00 0.00 89 1016.6
20260505022108 10 21 0.0 1.6 0.00 0.00 0.00 89 1016.6
20260505021608 10 13 0.0 1.6 0.00 0.00 0.00 89 1016.7
20260505021107 10 1 0.0 1.6 0.00 0.00 0.00 89 1016.6
20260505020608 10 357 0.0 1.6 0.00 0.00 0.00 89 1016.7
20260505020108 10 4 0.0 1.6 0.00 0.00 0.00 89 1016.5
20260505015608 10 9 0.0 1.6 0.00 0.00 0.00 89 1016.5
20260505015108 10 9 0.0 1.6 0.00 0.00 0.00 89 1016.6
20260505014607 10 15 0.0 3.2 0.00 0.00 0.00 88 1016.7
20260505014107 10 33 0.0 3.2 0.00 0.00 0.00 88 1016.8
20260505013608 10 55 0.0 1.6 0.00 0.00 0.00 88 1016.5
20260505013107 10 62 1.6 1.6 0.00 0.00 0.00 87 1016.6
20260505012607 10 71 1.6 1.6 0.00 0.00 0.00 87 1016.4
20260505012108 10 78 1.6 1.6 0.00 0.00 0.00 87 1016.4
20260505011607 11 71 1.6 3.2 0.00 0.00 0.00 86 1016.7
20260505011107 11 47 0.0 3.2 0.00 0.00 0.00 86 1016.6
20260505010607 11 33 1.6 3.2 0.00 0.00 0.00 86 1016.7
20260505010108 11 24 0.0 3.2 0.00 0.00 0.00 85 1016.3
20260505005608 11 48 1.6 3.2 0.00 0.00 0.00 85 1016.8
20260505005108 11 75 1.6 3.2 0.00 0.00 0.00 84 1016.7
20260505004607 11 91 1.6 3.2 0.00 0.00 0.00 84 1016.9
20260505004108 11 111 1.6 3.2 0.00 0.00 0.00 84 1016.8
20260505003608 11 109 1.6 3.2 0.00 0.00 0.00 84 1017.0
20260505003108 11 104 1.6 4.8 0.00 0.00 0.00 84 1016.9
20260505002608 11 98 3.2 4.8 0.00 0.00 0.00 84 1016.7
20260505002107 11 105 3.2 6.4 0.00 0.00 0.00 83 1017.0
20260505001608 11 94 3.2 9.7 0.00 0.00 0.00 83 1016.8
20260505001108 11 84 3.2 9.7 0.00 0.00 0.00 83 1017.0
20260505000608 11 95 3.2 6.4 0.00 0.00 0.00 84 1017.0
20260505000107 11 91 1.6 4.8 0.00 0.00 0.00 84 1016.9
20260504235607 11 71 1.6 3.2 0.00 0.00 0.00 84 1016.8
20260504235108 11 71 1.6 3.2 0.00 0.00 0.00 84 1016.9
20260504234607 11 77 1.6 4.8 0.00 0.00 0.00 84 1017.1
20260504234107 11 87 1.6 4.8 0.00 0.00 0.00 84 1016.8
20260504233608 11 88 3.2 4.8 0.00 0.00 0.00 84 1017.0
20260504233108 12 89 1.6 4.8 0.00 0.00 0.00 85 1016.7
20260504232607 12 93 3.2 6.4 0.00 0.00 0.00 85 1016.9
20260504232108 12 95 1.6 6.4 0.00 0.00 0.00 85 1016.8
20260504231607 12 99 1.6 3.2 0.00 0.00 0.00 85 1017.1
20260504231107 12 94 1.6 3.2 0.00 0.00 0.00 85 1017.1
20260504230608 12 91 1.6 4.8 0.00 0.00 0.00 84 1017.0
20260504230108 12 92 1.6 4.8 0.00 0.00 0.00 84 1017.3
20260504225608 12 98 1.6 4.8 0.00 0.00 0.00 84 1017.3
20260504225107 12 105 1.6 4.8 0.00 0.00 0.00 84 1016.9
20260504224608 12 101 1.6 3.2 0.00 0.00 0.00 84 1017.1
20260504224107 12 92 1.6 3.2 0.00 0.00 0.00 83 1017.2
20260504223607 12 94 1.6 3.2 0.00 0.00 0.00 83 1017.0
20260504223107 12 95 1.6 3.2 0.00 0.00 0.00 83 1017.1
20260504222607 12 98 1.6 3.2 0.00 0.00 0.00 83 1017.4
20260504222107 12 101 1.6 3.2 0.00 0.00 0.00 83 1017.0
20260504221612 12 100 3.2 4.8 0.00 0.00 0.00 83 1017.1
20260504221107 12 97 3.2 4.8 0.00 0.00 0.00 83 1017.3
20260504220608 12 97 3.2 4.8 0.00 0.00 0.00 82 1017.2
20260504220108 12 101 3.2 4.8 0.00 0.00 0.00 82 1017.4
20260504215607 12 97 3.2 4.8 0.00 0.00 0.00 82 1017.1